sat.trackr.live / text

‹ back to catalog

AE1D

NORAD 62618 · 2025-009K

PAYLOAD ACTIVE UNKNOWN

§ Identity

Operator
Country
JPN
Launch date
2025-01-14
Launch site
AFWTR
Launch vehicle
Mass (kg)
RCS (m²)

External: N2YO · Heavens-Above · Gunter

§ Orbital elements

Epoch: 2026-09-22T18:57:24.456960Z

Period
88.92 min
Inclination
97.3771°
Eccentricity
0.0013638
Mean motion
16.19495993 rev/d
Perigee alt
211.9 km
Apogee alt
229.9 km
Semi-major
6,599.1 km
B*
1.9891e-3
RAAN
2.1328°
Arg perigee
283.0855°
Mean anomaly
76.8911°
Rev number
9,482

§ Raw data

AE1D1 62618U 25009K   26265.78986640  .03659356  24193-5  19891-2 0  99992 62618  97.3771   2.1328 0013638 283.0855  76.8911 16.19495993 94828

JSON: /api/v1/satellites/62618 · /tle

For live sub-satellite position, see the globe view (requires WebGL).

§ Visibility from observer

Set your observer location to see the next 7 days of passes ≥ 10°. The values pass through the URL so the page stays shareable.

No JS? Fill the form by hand. The geolocation button needs JavaScript.